Budapest

METAR
SPECI

METAR LHBP 302130Z VRB03KT CAVOK 11/10 Q1017 NOSIG=

METAR LHBP 302100Z 00000KT CAVOK 12/11 Q1017 NOSIG=

METAR LHBP 302030Z 00000KT CAVOK 12/11 Q1017 NOSIG=

METAR LHBP 302000Z VRB03KT CAVOK 13/11 Q1017 NOSIG=

METAR LHBP 301930Z VRB03KT CAVOK 14/12 Q1017 NOSIG=

METAR LHBP 301900Z VRB03KT CAVOK 15/12 Q1017 NOSIG=


TAF

TAF LHBP 301700Z 3018/0118 13004KT CAVOK BECMG 3023/0102 6000 MIFG TEMPO 0102/0106 1200 BCFG BECMG 0106/0108 18007KT 9999 NSW SCT030 BECMG 0111/0113 21010KT CAVOK BECMG 0116/0118 16005KT=

METARRepülőterek meteorológiai tényadatai félóránkéntSAHU31
SAHU41
SPECIKülönleges időjárás-jelentő táviratSPHU31
SPHU85
TAFRepülőterek legfrissebb meteorológiai előrejelzéseFTHU31
FCHU41

GAMET

Nincs érvényes távirat 

FAHU41 LHBM 301100
LHCC GAMET VALID 301200/301800 LHBP-
BUDAPEST FIR BLW FL100


SECN 1
HAZARDOUS WX NIL=
OMSZ:  [FAHU41]
GAMETTerületi előrejelzés, FL100 (~3000 m) alatti veszélyes időjárási jelenségekrőlFAHU41
AIRMET

Nincs érvényes távirat 

WAHU41 LHBM 130800
LHCC AIRMET 01 VALID 130800/131000 LHBP-
LHCC BUDAPEST FIR ISOL TS OBS WI N4757 E02112 - N4757 E02244
- N4714 E02150 - N4718 E02111 - N4757 E02112 TOP FL340 MOV
SW NC=
OMSZ:  [WAHU41]
AIRMETRiasztás a kisgépes repülés számára veszélyes időjárási jelenség miatt (talajszint és FL100 közötti légtérre)WAHU41
SIGMET

Nincs érvényes távirat 

WSHU31 LHBM 191615
LHCC SIGMET 08 VALID 191615/191800 LHBP-
LHCC BUDAPEST FIR EMBD TS OBS AT 1615Z WI N4540 E01750 -
N4800 E01750 - N4810 E01920 - N4540 E01900 - N4540 E01750
TOP FL340 MOV WSW WKN=
OMSZ:  [WSHU31]
SIGMETRiasztás, a repülésre különösen veszélyes időjárási jelenség miatt (talajszint és FL450 közötti légtérre)WSHU31
SIGMET
Vulkáni
hamufelhő

Nincs érvényes távirat 

WVHU31 LHBM 271515 CCA
LHCC SIGMET 03 VALID 271515/271800 LHBP-
LHCC BUDAPEST FIR EXERCISE VOLCEX12/01
CNL VA SIGMET 02 271200/271800
EXERCISE EXERCISE EXERCISE VOLCEX12/01=
OMSZ:  [WVHU31]
SIGMET
Vulkáni
hamufelhő
Riasztás, a repülésre különösen veszélyes vulkáni tevékenység miattWVHU31